Le nostre stazioni meteo in Italia

Pubblicità
Il mio iltempo24.it
Bournemouth Airport, Gran Bretagna (3862): Temperatura & dewpoint: 15.09.2018 04:00:00 - 21.09.2018 04:00:00 (BST)Bournemouth Airport, Gran Bretagna (3862): Temperatura -20cm & Temperatura -100cm: 15.09.2018 04:00:00 - 21.09.2018 04:00:00 (BST)Bournemouth Airport, Gran Bretagna (3862): velocità del vento & gusts: 15.09.2018 04:00:00 - 21.09.2018 04:00:00 (BST)Bournemouth Airport, Gran Bretagna (3862): direzione del vento: 15.09.2018 04:00:00 - 21.09.2018 04:00:00 (BST)Bournemouth Airport, Gran Bretagna (3862): reduced air pressure: 15.09.2018 04:00:00 - 21.09.2018 04:00:00 (BST)Bournemouth Airport, Gran Bretagna (3862): visibility: 15.09.2018 04:00:00 - 21.09.2018 04:00:00 (BST)Bournemouth Airport, Gran Bretagna (3862): ore di luce: 15.09.2018 04:00:00 - 21.09.2018 04:00:00 (BST)Bournemouth Airport, Gran Bretagna (3862): precipitazioni: 15.09.2018 04:00:00 - 21.09.2018 04:00:00 (BST)
Data & Tempo tt [°C] td [°C] tt -20cm [°C] tt -100cm [°C] ff [km/h] ff [kn] fx [km/h] fx [kn] dd ppp [hPa] vv [km] sd [min] rr [mm]
21.09.2018 04:00:00 - - - - - - - - - - - - -
21.09.2018 03:00:00 13,2 10,0 - - 26 14 48 26 O 1001,7 23 0 0,0
21.09.2018 02:00:00 15,1 12,7 - - 29 16 57 31 O 1000,4 20 0 0,0
21.09.2018 01:00:00 15,9 14,8 - - 48 26 85 46 OSO 999,7 10 - 5,0
21.09.2018 00:00:00 18,0 16,5 - - 42 23 78 42 SSO 999,2 7 0 0,2
20.09.2018 23:00:00 17,9 16,6 - - 41 22 72 39 SSO 1000,7 8 0 1,2
20.09.2018 22:00:00 18,2 16,4 - - 37 20 67 36 SSO 1002,7 10 0 0,0
20.09.2018 21:00:00 18,9 16,3 - - 35 19 63 34 SO 1004,0 10 0 0,0
20.09.2018 20:00:00 19,1 16,2 - - 35 19 54 29 SSO 1005,0 10 0 0,0
20.09.2018 19:00:00 18,9 16,0 - - 34 18 65 35 SSO 1005,9 10 0 0,0
20.09.2018 18:00:00 19,1 15,8 - - 34 18 55 30 SO 1007,2 10 0 0,0
20.09.2018 17:00:00 19,0 15,8 - - 31 17 63 34 SSO 1008,2 10 0 0,0
20.09.2018 16:00:00 19,4 15,7 - - 35 19 72 39 SSO 1009,3 10 0 0,0
20.09.2018 15:00:00 19,9 15,8 - - 35 19 59 32 SSO 1010,0 10 12 0,0
20.09.2018 14:00:00 18,9 15,7 - - 34 18 50 27 SSO 1010,8 10 0 0,0
20.09.2018 13:00:00 18,4 15,7 - - 29 16 48 26 SSO 1011,2 10 0 0,0
20.09.2018 12:00:00 18,4 15,7 - - 24 13 48 26 SO 1011,8 10 0 0,0
20.09.2018 11:00:00 18,3 15,8 - - 28 15 46 25 SO 1012,2 10 0 0,0
20.09.2018 10:00:00 18,5 16,3 17,2 16,2 28 15 48 26 SO 1012,4 10 0 0,0
20.09.2018 09:00:00 17,9 15,8 - - 29 16 52 28 SO 1012,4 10 0 0,0
20.09.2018 08:00:00 17,7 15,7 - - 26 14 50 27 SO 1012,3 10 0 0,0
20.09.2018 07:00:00 17,4 15,5 - - 29 16 46 25 SO 1012,7 10 0 0,0
20.09.2018 06:00:00 17,3 15,4 - - 28 15 46 25 SO 1012,6 13 0 0,0
20.09.2018 05:00:00 17,2 15,9 - - 24 13 48 26 SO 1012,8 12 0 0,6
20.09.2018 04:00:00 17,5 15,3 - - 24 13 48 26 SO 1013,3 13 0 0,0
20.09.2018 03:00:00 17,6 15,6 - - 26 14 46 25 SO 1013,5 12 0 0,0
20.09.2018 02:00:00 17,6 15,7 - - 24 13 - - SO 1013,8 12 0 0,0
20.09.2018 01:00:00 17,4 15,9 - - 22 12 - - SO 1014,0 10 - 0,0
20.09.2018 00:00:00 16,9 15,7 - - 18 10 - - SO 1014,6 10 0 0,0
19.09.2018 23:00:00 16,4 15,3 - - 16 9 - - SO 1014,9 10 0 0,2
19.09.2018 22:00:00 17,0 15,8 - - 22 12 - - OSO 1015,2 4,2 0 0,0
19.09.2018 21:00:00 17,7 15,7 - - 22 12 - - SO 1015,0 10 0 0,0
19.09.2018 20:00:00 18,0 15,7 - - 26 14 - - OSO 1014,7 10 0 0,0
19.09.2018 19:00:00 17,9 15,5 - - 26 14 52 28 OSO 1014,4 10 18 0,0
19.09.2018 18:00:00 18,8 15,5 - - 35 19 55 30 OSO 1013,8 10 6 0,0
19.09.2018 17:00:00 18,9 15,7 - - 34 18 61 33 - 1013,6 10 0 0,0
19.09.2018 16:00:00 19,5 15,7 - - 39 21 57 31 SO 1013,5 10 24 0,0
19.09.2018 15:00:00 20,5 15,8 - - 34 18 68 37 OSO 1013,4 10 36 0,0
19.09.2018 14:00:00 20,6 16,0 - - 39 21 65 35 SO 1013,3 10 24 0,0
19.09.2018 13:00:00 19,1 15,9 - - 39 21 65 35 SO 1013,1 10 0 0,0
19.09.2018 12:00:00 18,8 16,2 - - 34 18 57 31 SO 1012,8 10 0 0,0
19.09.2018 11:00:00 19,0 16,4 - - 31 17 55 30 SO 1012,3 10 0 0,0
19.09.2018 10:00:00 18,5 16,5 17,2 16,2 31 17 50 27 SO 1012,5 10 0 0,0
19.09.2018 09:00:00 18,2 16,3 - - 31 17 50 27 SO 1012,3 10 0 0,0
19.09.2018 08:00:00 17,8 16,2 - - 24 13 46 25 SO 1012,2 10 0 0,2
19.09.2018 07:00:00 17,7 16,1 - - 26 14 - - SO 1012,0 10 0 0,0
19.09.2018 06:00:00 17,4 16,0 - - 22 12 - - SO 1011,8 12 0 0,0
19.09.2018 05:00:00 17,3 16,0 - - 18 10 - - SO 1012,1 9 0 0,0
19.09.2018 04:00:00 17,2 16,2 - - 18 10 - - SO 1012,2 8 0 0,6
19.09.2018 03:00:00 17,0 16,3 - - 21 11 - - SO 1012,4 4,1 0 1,4
19.09.2018 02:00:00 18,3 15,5 - - 26 14 - - SO 1012,3 13 0 0,0
19.09.2018 01:00:00 18,3 15,2 - - 24 13 - - SO 1012,8 15 - 0,0
19.09.2018 00:00:00 18,3 14,9 - - 26 14 - - SO 1012,7 16 0 0,0
18.09.2018 23:00:00 18,5 14,5 - - 24 13 - - SO 1012,5 10 0 0,0
18.09.2018 22:00:00 18,4 14,5 - - 24 13 - - OSO 1012,7 10 0 0,0
18.09.2018 21:00:00 18,5 14,4 - - 18 10 - - SO 1012,8 10 0 0,0
18.09.2018 20:00:00 18,0 14,7 - - 21 11 - - OSO 1012,6 15 0 0,0
18.09.2018 19:00:00 18,1 15,1 - - 24 13 - - OSO 1012,4 10 0 0,0
18.09.2018 18:00:00 18,5 15,1 - - 24 13 - - OSO 1012,3 10 0 0,0
18.09.2018 17:00:00 19,0 15,4 - - 22 12 - - OSO 1012,4 10 6 0,0
18.09.2018 16:00:00 19,1 15,3 - - 24 13 - - OSO 1012,3 10 0 0,0
18.09.2018 15:00:00 18,4 15,3 - - 22 12 - - SO 1012,2 10 0 0,0
18.09.2018 14:00:00 18,3 14,9 - - 21 11 - - OSO 1011,8 10 0 0,0
18.09.2018 13:00:00 18,6 14,4 - - 26 14 - - OSO 1011,4 10 6 0,0
18.09.2018 12:00:00 18,9 13,5 - - 28 15 50 27 O 1010,7 10 6 0,0
18.09.2018 11:00:00 18,3 13,5 - - 29 16 54 29 O 1010,3 10 0 0,0
18.09.2018 10:00:00 18,3 13,5 17,4 16,0 29 16 55 30 O 1009,0 10 18 0,0
18.09.2018 09:00:00 17,4 13,0 - - 41 22 63 34 OSO 1007,8 10 6 0,0
18.09.2018 08:00:00 16,6 14,8 - - 35 19 57 31 OSO 1006,6 10 0 0,0
18.09.2018 07:00:00 17,0 15,1 - - 34 18 57 31 OSO 1006,1 10 0 0,0
18.09.2018 06:00:00 16,6 15,5 - - 26 14 61 33 SO 1005,9 7 0 0,2
18.09.2018 05:00:00 17,3 15,4 - - 31 17 65 35 SO 1005,4 12 0 0,4
18.09.2018 04:00:00 17,5 16,7 - - 28 15 54 29 SO 1005,6 1,7 0 1,2
18.09.2018 03:00:00 18,6 16,3 - - 26 14 46 25 SSO 1005,8 12 0 0,0
18.09.2018 02:00:00 18,7 16,1 - - 22 12 - - SSO 1006,2 13 0 0,0
18.09.2018 01:00:00 18,7 15,6 - - 22 12 - - SSO 1006,6 16 - 0,0
18.09.2018 00:00:00 18,3 14,8 - - 15 8 - - SO 1007,1 17 0 0,0
17.09.2018 23:00:00 18,7 14,6 - - 15 8 - - S 1007,1 17 0 0,0
17.09.2018 22:00:00 18,9 14,6 - - 21 11 - - SSE 1007,5 10 0 0,0
17.09.2018 21:00:00 18,5 14,0 - - 15 8 - - SE 1008,3 10 0 0,0
17.09.2018 20:00:00 18,3 13,6 - - 11 6 - - SE 1009,1 10 12 0,0
17.09.2018 19:00:00 19,1 14,0 - - 15 8 - - SE 1009,6 10 60 0,0
17.09.2018 18:00:00 19,8 13,8 - - 16 9 - - SSE 1010,5 10 60 0,0
17.09.2018 17:00:00 20,0 14,0 - - 18 10 - - SSE 1011,3 10 60 0,0
17.09.2018 16:00:00 20,2 14,8 - - 18 10 - - S 1012,1 10 60 0,0
17.09.2018 15:00:00 20,8 14,5 - - 16 9 - - S 1013,2 10 54 0,0
17.09.2018 14:00:00 19,2 14,6 - - 18 10 - - SSE 1014,1 10 24 0,0
17.09.2018 13:00:00 20,3 15,4 - - 16 9 - - S 1014,7 10 48 0,0
17.09.2018 12:00:00 20,0 16,1 - - 22 12 - - S 1015,4 10 54 0,0
17.09.2018 11:00:00 20,1 16,6 - - 18 10 - - S 1016,1 10 42 0,0
17.09.2018 10:00:00 18,7 15,5 16,9 16,0 16 9 - - SSO 1016,5 10 12 0,0
17.09.2018 09:00:00 18,1 16,2 - - 16 9 - - S 1016,4 10 0 0,0
17.09.2018 08:00:00 17,9 16,0 - - 16 9 - - SSO 1016,4 10 0 0,0
17.09.2018 07:00:00 17,7 16,2 - - 13 7 - - SSO 1016,4 10 0 0,0
17.09.2018 06:00:00 17,6 16,1 - - 15 8 - - SSO 1016,6 10 0 0,0
17.09.2018 05:00:00 17,6 16,4 - - 15 8 - - SSO 1016,7 16 0 0,0
17.09.2018 04:00:00 17,6 16,3 - - 15 8 - - SSO 1017,1 12 0 0,0
17.09.2018 03:00:00 17,7 16,4 - - 13 7 - - SSO 1017,4 12 0 0,0
17.09.2018 02:00:00 17,5 16,5 - - 9 5 - - S 1017,4 11 0 0,0
17.09.2018 01:00:00 17,4 16,4 - - 13 7 - - SSO 1018,2 10 - -
17.09.2018 00:00:00 17,3 16,4 - - 11 6 - - SSO 1018,5 9 0 0,0
16.09.2018 23:00:00 17,4 16,4 - - 11 6 - - SSO 1018,5 9 0 0,0
16.09.2018 22:00:00 17,5 16,2 - - 13 7 - - OSO 1018,9 10 0 0,0
16.09.2018 21:00:00 17,6 15,8 - - 13 7 - - SO 1018,6 10 0 0,0
16.09.2018 20:00:00 17,6 15,6 - - 11 6 - - OSO 1018,4 10 0 0,0
16.09.2018 19:00:00 17,8 15,1 - - 13 7 - - SSO 1018,0 17 0 0,0
16.09.2018 18:00:00 19,2 15,6 - - 15 8 - - OSO 1018,2 10 6 0,0
16.09.2018 17:00:00 20,1 14,9 - - 18 10 - - OSO 1017,9 10 24 0,0
16.09.2018 16:00:00 19,4 14,8 - - 16 9 - - SO 1018,0 10 0 0,0
16.09.2018 15:00:00 19,3 13,8 - - 24 13 - - SO 1018,4 10 24 0,0
16.09.2018 14:00:00 21,0 13,8 - - 26 14 - - SO 1018,1 10 42 0,0
16.09.2018 13:00:00 22,2 14,4 - - 18 10 - - OSO 1018,8 10 36 0,0
16.09.2018 12:00:00 18,8 12,4 - - 18 10 - - SSO 1018,8 10 12 0,0
16.09.2018 11:00:00 18,5 11,9 - - 16 9 - - SO 1019,4 10 0 0,0
16.09.2018 10:00:00 18,7 13,0 16,4 16,0 15 8 - - SO 1019,3 10 24 0,0
16.09.2018 09:00:00 17,6 14,7 - - 15 8 - - SSO 1018,8 10 0 0,0
16.09.2018 08:00:00 16,8 14,5 - - 18 10 - - SSO 1018,7 10 0 0,0
16.09.2018 07:00:00 16,2 13,6 - - 15 8 - - SSO 1018,7 10 0 0,0
16.09.2018 06:00:00 16,2 14,1 - - 15 8 - - SSO 1019,1 10 0 0,0
16.09.2018 05:00:00 16,2 13,9 - - 15 8 - - S 1019,1 21 0 0,0
16.09.2018 04:00:00 15,8 13,5 - - 13 7 - - S 1020,0 20 0 0,0
16.09.2018 03:00:00 15,3 13,2 - - 8 4 - - S 1020,6 20 0 0,0
16.09.2018 02:00:00 14,8 12,7 - - 11 6 - - S 1021,5 22 0 0,0
16.09.2018 01:00:00 15,4 12,8 - - 13 7 - - SSO 1022,2 21 - 0,0
16.09.2018 00:00:00 14,0 13,1 - - 9 5 - - S 1022,4 10 0 0,0
15.09.2018 23:00:00 11,0 9,3 - - 0 0 - - N 1022,9 14 0 0,0
15.09.2018 22:00:00 13,9 11,9 - - 9 5 - - S 1023,4 10 0 0,0
15.09.2018 21:00:00 11,9 10,4 - - 2 1 - - SE 1023,8 10 0 0,0
15.09.2018 20:00:00 14,4 11,7 - - 4 2 - - SO 1023,5 10 0 0,0
15.09.2018 19:00:00 15,8 11,2 - - 9 5 - - SO 1023,4 10 6 0,0
15.09.2018 18:00:00 17,0 11,0 - - 13 7 - - OSO 1023,4 10 30 -
15.09.2018 17:00:00 17,9 10,5 - - 21 11 - - OSO 1023,7 10 60 0,0
15.09.2018 16:00:00 19,0 10,3 - - 18 10 - - OSO 1024,1 10 60 0,0
15.09.2018 15:00:00 19,7 11,4 - - 18 10 - - SO 1024,2 10 54 0,0
15.09.2018 14:00:00 20,4 12,4 - - 15 8 - - OSO 1024,4 10 18 0,0
15.09.2018 13:00:00 19,5 11,7 - - 11 6 - - OSO 1024,7 10 42 0,0
15.09.2018 12:00:00 17,9 10,5 - - 11 6 - - OSO 1025,1 10 36 0,0
15.09.2018 11:00:00 17,9 11,8 - - 13 7 - - O 1025,1 10 60 0,0
15.09.2018 10:00:00 16,3 12,2 16,4 16,2 13 7 - - O 1025,0 10 60 0,0
15.09.2018 09:00:00 14,1 13,7 - - 9 5 - - - 1025,0 10 60 0,0
15.09.2018 08:00:00 9,2 8,9 - - 2 1 - - E 1024,5 10 12 0,0
15.09.2018 07:00:00 6,6 6,2 - - 2 1 - - NE 1024,1 10 0 0,0
15.09.2018 06:00:00 8,1 7,6 - - 2 1 - - O 1023,8 7 0 0,0
15.09.2018 05:00:00 8,5 8,1 - - 4 2 - - O 1023,4 6 0 0,0
15.09.2018 04:00:00 9,0 8,4 - - 9 5 - - OSO 1023,3 8 0 0,0

tt = Temperatura
td = dewpoint
tt -20cm = Temperatura -20cm
tt -100cm = Temperatura -100cm
ff = velocità del vento
fx = gusts
dd = direzione del vento
ppp = reduced air pressure
vv = visibility
sd = ore di luce
rr = precipitazioni

Stazioni seguenti

WeatherPro
AMSI
MeteoEarth